Terminal Aerodrome Forecast
Issued by NWS

Home | Current Version | Previous Version | Graphics & Text | Print | Product List | Glossary On
Versions: 1 2 3 4 5 6 7 8 9 10 11 12 13 14 15 16 17
141
FTUS43 KMPX 232059 AAA
TAFAXN
TAF AMD
KAXN 232059Z 2321/2418 03013KT P6SM SCT015 BKN090
     FM240600 02016G26KT P6SM OVC070=

USA.gov is the U.S. government's official web portal to all federal, state and local government web resources and services.